Location: Althorst
(53.6379°N, 10.7715°E)
Time: 13:27:04
(UTC+00:00)

Cosmos 1428 Rocket - Pass Details

Date: 10 December 2019
Orbit: 948 x 988 km, 82.9° (Epoch: 26 January)

Event Time Altitude Azimuth Distance (km) Brightness Sun altitude
Rises 17:37:04 0° 183° (S) 3,633 7.6 -22.3°
Reaches altitude 10° 17:39:33 10° 182° (S) 2,697 6.9 -22.6°
Maximum altitude 17:45:43 78° 98° (E) 997 4.3 -23.5°
Drops below altitude 10° 17:52:00 10° 13° (NNE) 2,743 6.7 -24.5°
Enters shadow 17:52:58 - 12° (NNE) 3,108 7.0 -24.6°
